Monument Pass, CO

11:34 PM MDT on May 26, 2018 (GMT -0600)
Monument Pass

Weather History for KMNH - October, 2013

Change the Weather History Date:

Sunday, October 6, 2013

  Actual Average Record
Temperature  
Mean Temperature 45 °F -  
Max Temperature 60 °F - 75 °F (2007)
Min Temperature 30 °F - 26 °F (2012)
Degree Days  
Heating Degree Days 20    
Month to date heating degree days  
Cooling Degree Days 0    
Month to date cooling degree days  
Moisture  
Dew Point 21 °F    
Average Humidity 41    
Maximum Humidity 87    
Minimum Humidity 21    
Precipitation  
Precipitation 0.00 in - 0.29 in (2015)
Sea Level Pressure  
Sea Level Pressure 30.30 in    
Wind  
Wind Speed 6 mph (West)    
Max Wind Speed 12 mph    
Max Gust Speed 17 mph    
Visibility 10 miles    
Events      
T = Trace of Precipitation, MM = Missing Value Source: NWS Daily Summary

Daily Weather History Graph

Daily Weather History Graph

Search for Another Location

Airport or City:

Astronomy

Oct. 06, 2013 Rise Set
Actual Time 6:59 AM MDT 6:32 PM MDT
Civil Twilight 6:32 AM MDT 6:59 PM MDT
Nautical Twilight 6:01 AM MDT 7:30 PM MDT
Astronomical Twilight 5:30 AM MDT 8:01 PM MDT
Moon 8:45 AM MDT (10/6) 7:35 PM MDT (10/6)
Length of Visible Light 12h 26m
Length of Day
11h 33m
Waxing Crescent, 4% of the Moon is Illuminated
Oct 6
Waxing Crescent
Oct 11
First Quarter
Oct 18
Full
Oct 26
Last Quarter
Nov 3
New

Hourly Weather History & Observations

Time (MDT) Temp. Windchill Dew Point Humidity Pressure Visibility Wind Dir Wind Speed Gust Speed Precip Events Conditions
12:13 AM 32.0 °F 24.8 °F 10.4 °F 41% 30.26 in 10.0 mi WSW 8.1 mph - N/A   Clear
12:32 AM 32.0 °F 24.8 °F 12.2 °F 44% 30.26 in 10.0 mi WSW 8.1 mph - N/A   Clear
12:52 AM 32.0 °F 26.4 °F 8.6 °F 38% 30.26 in 10.0 mi WSW 5.8 mph - N/A   Clear
1:13 AM 33.8 °F 27.7 °F 8.6 °F 35% 30.25 in 10.0 mi WSW 6.9 mph - N/A   Clear
1:33 AM 33.8 °F 25.8 °F 10.4 °F 38% 30.24 in 10.0 mi WSW 10.4 mph - N/A   Clear
1:53 AM 32.0 °F 24.2 °F 12.2 °F 44% 30.25 in 10.0 mi WSW 9.2 mph - N/A   Clear
2:13 AM 33.8 °F 27.0 °F 8.6 °F 35% 30.25 in 10.0 mi WSW 8.1 mph - N/A   Clear
2:33 AM 33.8 °F 27.0 °F 8.6 °F 35% 30.25 in 10.0 mi WSW 8.1 mph - N/A   Clear
2:53 AM 33.8 °F 27.7 °F 8.6 °F 35% 30.24 in 10.0 mi WSW 6.9 mph - N/A   Clear
3:13 AM 35.6 °F 30.7 °F 5.0 °F 28% 30.24 in 10.0 mi WSW 5.8 mph - N/A   Clear
3:33 AM 35.6 °F 30.7 °F 5.0 °F 28% 30.25 in 10.0 mi West 5.8 mph - N/A   Clear
3:53 AM 32.0 °F 25.6 °F 8.6 °F 38% 30.26 in 10.0 mi West 6.9 mph - N/A   Clear
4:13 AM 32.0 °F 25.6 °F 8.6 °F 38% 30.26 in 10.0 mi WSW 6.9 mph - N/A   Clear
4:33 AM 32.0 °F 25.6 °F 12.2 °F 44% 30.27 in 10.0 mi West 6.9 mph - N/A   Clear
4:53 AM 32.0 °F 26.4 °F 10.4 °F 41% 30.27 in 10.0 mi West 5.8 mph - N/A   Clear
5:13 AM 35.6 °F 31.7 °F 5.0 °F 28% 30.28 in 10.0 mi WNW 4.6 mph - N/A   Clear
5:33 AM 33.8 °F 28.6 °F 8.6 °F 35% 30.28 in 10.0 mi WSW 5.8 mph - N/A   Clear
5:53 AM 32.0 °F 26.4 °F 10.4 °F 41% 30.28 in 10.0 mi WSW 5.8 mph - N/A   Clear
6:13 AM 30.2 °F 25.4 °F 14.0 °F 51% 30.29 in 10.0 mi West 4.6 mph - N/A   Clear
6:33 AM 30.2 °F - 12.2 °F 47% 30.29 in 10.0 mi Calm Calm - N/A   Clear
6:53 AM 30.2 °F 23.4 °F 14.0 °F 51% 30.29 in 10.0 mi SW 6.9 mph - N/A   Clear
7:13 AM 32.0 °F 25.6 °F 12.2 °F 44% 30.29 in 10.0 mi SW 6.9 mph - N/A   Clear
7:33 AM 33.8 °F 27.7 °F 14.0 °F 44% 30.29 in 10.0 mi SW 6.9 mph - N/A   Clear
7:53 AM 35.6 °F 32.8 °F 17.6 °F 48% 30.29 in 10.0 mi SW 3.5 mph - N/A   Clear
8:13 AM 42.8 °F 41.1 °F 12.2 °F 29% 30.30 in 10.0 mi SW 3.5 mph - N/A   Clear
8:33 AM 44.6 °F - 19.4 °F 37% 30.31 in 10.0 mi Calm Calm - N/A   Clear
8:52 AM 46.4 °F 45.2 °F 10.4 °F 23% 30.31 in 10.0 mi SSE 3.5 mph - N/A   Clear
9:13 AM 50.0 °F - 12.2 °F 22% 30.32 in 10.0 mi Calm Calm - N/A   Clear
9:33 AM 51.8 °F - 12.2 °F 21% 30.32 in 10.0 mi Calm Calm - N/A   Clear
9:53 AM 51.8 °F - 15.8 °F 24% 30.32 in 10.0 mi Calm Calm - N/A   Clear
10:13 AM 53.6 °F - 14.0 °F 21% 30.32 in 10.0 mi Calm Calm - N/A   Clear
10:33 AM 53.6 °F - 17.6 °F 24% 30.32 in 10.0 mi Calm Calm - N/A   Clear
10:53 AM 55.4 °F - 19.4 °F 25% 30.32 in 10.0 mi Calm Calm - N/A   Clear
11:11 AM 57.2 °F - 21.2 °F 25% 30.32 in 10.0 mi WSW 3.5 mph - N/A   Clear
11:33 AM 57.2 °F - 21.2 °F 25% 30.32 in 10.0 mi North 4.6 mph - N/A   Clear
11:53 AM 59.0 °F - 23.0 °F 25% 30.32 in 10.0 mi WNW 3.5 mph - N/A   Clear
12:13 PM 59.0 °F - 23.0 °F 25% 30.32 in 10.0 mi Calm Calm - N/A   Clear
12:33 PM 59.0 °F - 23.0 °F 25% 30.32 in 10.0 mi North 3.5 mph - N/A   Clear
12:52 PM 60.8 °F - 23.0 °F 23% 30.31 in 10.0 mi NE 5.8 mph - N/A   Clear
1:13 PM 60.8 °F - 24.8 °F 25% 30.31 in 10.0 mi West 3.5 mph - N/A   Clear
1:32 PM 59.0 °F - 26.6 °F 29% 30.30 in 10.0 mi East 5.8 mph 17.3 mph N/A   Clear
1:52 PM 60.8 °F - 26.6 °F 27% 30.30 in 10.0 mi NNE 8.1 mph - N/A   Clear
2:13 PM 60.8 °F - 26.6 °F 27% 30.30 in 10.0 mi NE 4.6 mph - N/A   Clear
2:33 PM 60.8 °F - 26.6 °F 27% 30.30 in 10.0 mi North 8.1 mph - N/A   Clear
2:53 PM 60.8 °F - 28.4 °F 29% 30.30 in 10.0 mi NNE 8.1 mph - N/A   Clear
3:13 PM 59.0 °F - 28.4 °F 31% 30.30 in 10.0 mi NE 8.1 mph - N/A   Clear
3:33 PM 60.8 °F - 28.4 °F 29% 30.31 in 10.0 mi NNE 4.6 mph - N/A   Clear
3:53 PM 59.0 °F - 28.4 °F 31% 30.31 in 10.0 mi NNE 5.8 mph - N/A   Clear
4:13 PM 59.0 °F - 28.4 °F 31% 30.31 in 10.0 mi NNE 6.9 mph - N/A   Clear
4:32 PM 59.0 °F - 28.4 °F 31% 30.30 in 10.0 mi NE 8.1 mph - N/A   Clear
4:53 PM 59.0 °F - 28.4 °F 31% 30.31 in 10.0 mi NE 4.6 mph - N/A   Clear
5:13 PM 59.0 °F - 30.2 °F 34% 30.31 in 10.0 mi NE 6.9 mph - N/A   Clear
5:33 PM 55.4 °F - 30.2 °F 38% 30.32 in 10.0 mi NNE 9.2 mph - N/A   Clear
5:53 PM 53.6 °F - 30.2 °F 41% 30.32 in 10.0 mi NNE 5.8 mph - N/A   Clear
6:13 PM 53.6 °F - 30.2 °F 41% 30.33 in 10.0 mi NNE 3.5 mph - N/A   Clear
6:32 PM 50.0 °F - 30.2 °F 47% 30.34 in 10.0 mi Calm Calm - N/A   Clear
6:52 PM 50.0 °F - 30.2 °F 47% 30.33 in 10.0 mi NNE 5.8 mph - N/A   Clear
7:13 PM 42.8 °F - 32.0 °F 66% 30.34 in 10.0 mi Calm Calm - N/A   Clear
7:33 PM 44.6 °F 42.2 °F 30.2 °F 57% 30.33 in 10.0 mi North 4.6 mph - N/A   Clear
7:52 PM 42.8 °F - 32.0 °F 66% 30.34 in 10.0 mi Calm Calm - N/A   Clear
8:12 PM 39.2 °F 35.9 °F 32.0 °F 75% 30.34 in 10.0 mi SSW 4.6 mph - N/A   Clear
8:33 PM 41.0 °F 37.1 °F 30.2 °F 65% 30.34 in 10.0 mi SSW 5.8 mph - N/A   Clear
8:53 PM 41.0 °F 38.0 °F 30.2 °F 65% 30.34 in 10.0 mi SW 4.6 mph - N/A   Clear
9:13 PM 35.6 °F 29.9 °F 32.0 °F 87% 30.34 in 10.0 mi SSW 6.9 mph - N/A   Clear
9:32 PM 37.4 °F 30.8 °F 30.2 °F 75% 30.34 in 10.0 mi SSW 9.2 mph - N/A   Clear
9:53 PM 37.4 °F 30.3 °F 30.2 °F 75% 30.34 in 10.0 mi SSW 10.4 mph - N/A   Clear
10:13 PM 37.4 °F 31.4 °F 30.2 °F 75% 30.34 in 10.0 mi South 8.1 mph - N/A   Clear
10:33 PM 39.2 °F 34.2 °F 30.2 °F 70% 30.34 in 10.0 mi SSW 6.9 mph - N/A   Clear
10:53 PM 37.4 °F 32.1 °F 30.2 °F 75% 30.33 in 10.0 mi SSW 6.9 mph - N/A   Clear
11:13 PM 39.2 °F 33.0 °F 28.4 °F 65% 30.32 in 10.0 mi SSW 9.2 mph - N/A   Clear
11:33 PM 35.6 °F 27.5 °F 28.4 °F 75% 30.31 in 10.0 mi SSW 11.5 mph - N/A   Clear
11:53 PM 39.2 °F 32.0 °F 26.6 °F 61% 30.30 in 10.0 mi SSW 11.5 mph - N/A   Clear